Retour au catalogue

ATLAS 5 CENTAUR DEB

LostHEO
NORAD 44681·DEBRIS·🇺🇸 United States

Lancé Oct 17, 2018 depuis Cape Canaveral Space Force Station

Loading…

Prochains Passages (prochaines 24 heures)

TLE

PériméSource: Space-Track

Époque: Aug 7, 2024, 01:01 UTC

1 44681U 18079AT  24220.04242725 -.00000076  00000-0  00000-0 0  9998
2 44681  10.9126 115.0995 4610348 156.6732 233.4981  1.72113985 32541

Suivez ATLAS 5 CENTAUR DEB en temps réel avec AllMySat

Download on the App Store